[[{"header":{"parameterUnit":"m.s-1","parameterCategory":1,"la1":30.2991,"la2":30.254,"lo1":-89.0895,"lo2":-89.0444,"dy":0.0017,"dx":0.0017,"nx":28,"ny":28,"refTime":"2025-08-15T09:00:00:Z","depth":0,"parameterNumber":2,"parameterNumberName":"U-component_of_WINDS"},"data":[0,0,0,0,0,0,0,0,0,0,0,0,0,0,0,0,0,0,0,0,0,0,0,0,0,0,0,0,0,0,0,0,0,0,0,0,0,0,0,0,0,0,0,0,0,0,0,0,0,0,0,0,0,0,0,0,0,0,0.7957,0.7957,0,0.7985,0.7986,0.7986,0.7963,0.7962,0.7961,0.796,0.7995,0.7997,0.7999,0,0,0,0,0,0,0,0,0,0,0,0,0,0.7889,0.789,0.7957,0.7957,0.7958,0.7985,0.7986,0.7986,0.7963,0.7962,0.7961,0.796,0.7995,0.7997,0.7999,0,0,0,0,0,0,0,0,0,0,0,0,0,0.7918,0.7891,0.7957,0.795,0.7949,0.7985,0.7986,0.7986,0.7964,0.7962,0.7961,0.7959,0.7994,0.7997,0.7999,0.8046,0,0,0.8008,0.8009,0,0,0,0,0,0,0,0,0.7917,0.7921,0.795,0.795,0.795,0.7969,0.7974,0.8006,0.7964,0.7958,0.796,0.7959,0.7988,0.7991,0.8,0.8048,0.8049,0.8008,0.801,0.8011,0.8012,0,0,0,0,0,0,0,0.7915,0.7919,0.7968,0.7951,0.795,0.7947,0.7949,0.798,0.7981,0.7959,0.7957,0.7961,0.7988,0.7997,0.8001,0.805,0.8008,0.801,0.8012,0.8013,0.8139,0.8141,0,0,0,0,0,0,0.7912,0.7918,0.7967,0.7969,0.7929,0.7949,0.7952,0.7965,0.7981,0.7982,0.7962,0.7959,0.7993,0.7997,0.8002,0.8059,0.8011,0.8013,0.8015,0.8138,0.814,0.8141,0,0,0,0,0,0,0.7911,0.7917,0.7966,0.7943,0.7949,0.7952,0.7966,0.7966,0.7975,0.7983,0.7984,0.7971,0.7992,0.7998,0.8035,0.806,0.8015,0.8017,0.8136,0.8138,0.814,0.8173,0,0,0,0,0,0,0.7909,0.7917,0.7933,0.7944,0.795,0.7998,0.7968,0.7968,0.798,0.7977,0.7992,0.7993,0.7992,0.8031,0.8038,0.8063,0.8019,0.8133,0.8137,0.814,0.817,0.8177,0.8182,0,0,0,0,0,0.7907,0.7942,0.7934,0.794,0.7971,0.7999,0.8003,0.7999,0.7982,0.7999,0.8004,0.7993,0.8056,0.8035,0.8043,0.8069,0.8132,0.8136,0.8139,0.8167,0.8175,0.8182,0,0,0,0,0,0,0.7936,0.7943,0.7934,0.7973,0.7986,0.7995,0.8017,0.8007,0.8026,0.8023,0.8018,0.8022,0.8062,0.8069,0.8046,0.8116,0.8091,0.8097,0.811,0.8118,0.8124,0.8122,0.8022,0,0,0,0,0,0.7947,0.7967,0.7973,0.8007,0.8014,0.8014,0.8026,0.8022,0.8035,0.8041,0.8049,0.8064,0.8087,0.8102,0.8124,0.817,0.8175,0.8192,0.8198,0.8203,0.8209,0.8236,0.8245,0.8154,0.8154,0.8154,0,0,0.797,0.7976,0.799,0.8013,0.8022,0.8046,0.8019,0.8045,0.8063,0.8045,0.8081,0.8087,0.8104,0.8146,0.8166,0.8154,0.8235,0.8208,0.8212,0.8215,0.8241,0.825,0.8258,0.8156,0.8156,0.8156,0,0,0.8024,0.803,0.806,0.8069,0.8082,0.8082,0.8089,0.81,0.8103,0.8139,0.8127,0.8149,0.8189,0.8201,0.8213,0.8273,0.8264,0.828,0.8313,0.834,0.8347,0.8353,0.8377,0.8385,0.8285,0.8285,0.8285,0,0.8052,0.8085,0.8077,0.8103,0.8115,0.8099,0.813,0.814,0.8161,0.817,0.8156,0.8206,0.8216,0.8262,0.8277,0.8286,0.8296,0.8279,0.8346,0.8352,0.8358,0.8381,0.839,0.8287,0.8287,0.8287,0.8287,0,0.8119,0.8142,0.8165,0.8184,0.8198,0.8227,0.8226,0.8241,0.8236,0.8238,0.8276,0.8287,0.8311,0.8322,0.8317,0.8368,0.836,0.8346,0.8322,0.8369,0.839,0.8399,0.829,0.8289,0.8289,0.8288,0,0,0.8194,0.8207,0.8216,0.8225,0.8238,0.8257,0.8286,0.8308,0.8323,0.8338,0.8364,0.8398,0.8385,0.8399,0.8395,0.8418,0.8468,0.8402,0.8402,0.8416,0.8528,0.854,0.855,0.8461,0.8463,0.8464,0.8527,0,0.825,0.8299,0.8293,0.8341,0.8364,0.8348,0.8374,0.8387,0.839,0.8411,0.8415,0.8441,0.842,0.8429,0.8451,0.8457,0.8491,0.8452,0.8488,0.849,0.8487,0.8561,0.8574,0.8633,0.8535,0.8537,0.8538,0,0.8323,0.8339,0.8388,0.8399,0.8409,0.8432,0.8452,0.8472,0.8487,0.8488,0.8503,0.8496,0.8528,0.8501,0.8546,0.852,0.8535,0.854,0.8543,0.8548,0.8518,0.857,0.8651,0.8661,0.855,0.8549,0.8548,0,0.8375,0.8409,0.8443,0.8451,0.8464,0.8481,0.8488,0.85,0.8515,0.8533,0.8543,0.8566,0.8579,0.8598,0.8598,0.8578,0.8645,0.8618,0.8649,0.865,0.8666,0.8666,0.8753,0.8671,0.8671,0.8671,0.8671,0,0.844,0.8472,0.8467,0.8489,0.8525,0.8518,0.8554,0.8559,0.8571,0.8595,0.8583,0.8606,0.8604,0.8628,0.8629,0.8668,0.8673,0.8677,0.8677,0.8679,0.8679,0.8691,0.8688,0.8673,0.8673,0.8672,0.8672,0,0.8506,0.8503,0.854,0.8549,0.8552,0.8578,0.8587,0.8609,0.861,0.8641,0.8648,0.8652,0.868,0.8681,0.8714,0.8715,0.8763,0.8757,0.8758,0.8758,0.879,0.8788,0.889,0.8904,0.8811,0.8812,0.8812,0,0.8548,0.8572,0.8583,0.8597,0.8605,0.8628,0.8642,0.8637,0.8653,0.8671,0.8691,0.8718,0.8739,0.8785,0.8792,0.8817,0.8814,0.8848,0.8818,0.882,0.8818,0.8817,0.8821,0.8855,0.8856,0.8857,0.8857,0,0.8626,0.8623,0.8643,0.8663,0.8679,0.8695,0.871,0.8723,0.8719,0.8738,0.8766,0.8782,0.8815,0.8842,0.8867,0.8876,0.8868,0.8866,0.8875,0.8879,0.888,0.8882,0.8776,0.8865,0.8864,0.8863,0.8863,0.8863,0.8683,0.8704,0.8715,0.8738,0.8748,0.8762,0.8783,0.8787,0.8809,0.8834,0.883,0.8862,0.8877,0.8909,0.8921,0.8947,0.8936,0.8948,0.8952,0.8956,0.8961,0.8873,0.8951,0.8951,0.8951,0.8951,0.895,0,0.8762,0.8768,0.8788,0.8809,0.8827,0.8814,0.883,0.8847,0.8874,0.8888,0.8909,0.8942,0.8969,0.8978,0.9004,0.9024,0.9021,0.9031,0.9031,0.9034,0.8968,0.8958,0.9033,0.9033,0.9033,0.9033,0.9033,0.9033,0.8805,0.8841,0.884,0.8881,0.8888,0.8917,0.8927,0.8941,0.8952,0.8989,0.901,0.9015,0.9028,0.9056,0.9081,0.9083,0.9094,0.9107,0.9108,0.9047,0.9039,0.9031,0.9022,0.9109,0.9109,0.9173,0.9173,0.9174]},{"header":{"parameterUnit":"m.s-1","parameterCategory":1,"la1":30.2991,"la2":30.254,"lo1":-89.0895,"lo2":-89.0444,"dy":0.0017,"dx":0.0017,"nx":28,"ny":28,"refTime":"2025-08-15T09:00:00:Z","depth":0,"parameterNumber":3,"parameterNumberName":"V-component_of_WINDS"},"data":[0,0,0,0,0,0,0,0,0,0,0,0,0,0,0,0,0,0,0,0,0,0,0,0,0,0,0,0,0,0,0,0,0,0,0,0,0,0,0,0,0,0,0,0,0,0,0,0,0,0,0,0,0,0,0,0,0,0,-2.6317,-2.6317,0,-2.6371,-2.6371,-2.6372,-2.6346,-2.6345,-2.6343,-2.6342,-2.6396,-2.6398,-2.6401,0,0,0,0,0,0,0,0,0,0,0,0,0,-2.6188,-2.6191,-2.6316,-2.6317,-2.6318,-2.6371,-2.6371,-2.6372,-2.6346,-2.6345,-2.6343,-2.6341,-2.6395,-2.6398,-2.6401,0,0,0,0,0,0,0,0,0,0,0,0,0,-2.6243,-2.6192,-2.6316,-2.6311,-2.6312,-2.6371,-2.6372,-2.6372,-2.6347,-2.6345,-2.6343,-2.6341,-2.6394,-2.6398,-2.6402,-2.6468,0,0,-2.6414,-2.6416,0,0,0,0,0,0,0,0,-2.624,-2.6248,-2.6311,-2.6312,-2.6312,-2.635,-2.6346,-2.6404,-2.6347,-2.6333,-2.6342,-2.634,-2.6382,-2.6387,-2.6401,-2.6471,-2.6473,-2.6414,-2.6417,-2.6419,-2.642,0,0,0,0,0,0,0,-2.6237,-2.6246,-2.6338,-2.6312,-2.6313,-2.6306,-2.6311,-2.6357,-2.6368,-2.6334,-2.6333,-2.634,-2.6382,-2.6398,-2.6402,-2.6474,-2.6414,-2.6418,-2.642,-2.6422,-2.66,-2.6602,0,0,0,0,0,0,-2.6233,-2.6243,-2.6336,-2.634,-2.627,-2.631,-2.6316,-2.634,-2.6368,-2.637,-2.6341,-2.6338,-2.6392,-2.6398,-2.6404,-2.6484,-2.6419,-2.6422,-2.6425,-2.6598,-2.66,-2.6603,0,0,0,0,0,0,-2.6231,-2.6242,-2.6334,-2.6291,-2.6302,-2.6314,-2.6341,-2.6342,-2.6358,-2.6373,-2.6375,-2.6356,-2.639,-2.6399,-2.6453,-2.6486,-2.6424,-2.6428,-2.6595,-2.6599,-2.6602,-2.6644,0,0,0,0,0,0,-2.6227,-2.6241,-2.6267,-2.6292,-2.6304,-2.6382,-2.6343,-2.6344,-2.6365,-2.6362,-2.6387,-2.6389,-2.6389,-2.6447,-2.6457,-2.649,-2.6431,-2.6592,-2.6597,-2.6601,-2.664,-2.6649,-2.6656,0,0,0,0,0,-2.6222,-2.6276,-2.6268,-2.628,-2.6337,-2.6384,-2.6391,-2.6391,-2.6368,-2.6394,-2.6404,-2.6388,-2.648,-2.6452,-2.6463,-2.6499,-2.659,-2.6595,-2.66,-2.6636,-2.6647,-2.6656,0,0,0,0,0,0,-2.6254,-2.6279,-2.6271,-2.6334,-2.6358,-2.638,-2.6412,-2.6402,-2.6432,-2.6427,-2.6425,-2.6431,-2.6487,-2.6498,-2.6466,-2.6564,-2.6531,-2.6539,-2.6555,-2.6565,-2.6573,-2.657,-2.6434,0,0,0,0,0,-2.6269,-2.6306,-2.6325,-2.6379,-2.6392,-2.64,-2.642,-2.6418,-2.6442,-2.6451,-2.6465,-2.6488,-2.6522,-2.6544,-2.6576,-2.6641,-2.6646,-2.6671,-2.6679,-2.6686,-2.6692,-2.6728,-2.6739,-2.662,-2.662,-2.662,0,0,-2.6299,-2.6317,-2.6341,-2.6386,-2.6404,-2.6442,-2.6408,-2.645,-2.6477,-2.6457,-2.6509,-2.652,-2.6545,-2.6605,-2.6632,-2.6616,-2.6726,-2.6692,-2.6697,-2.67,-2.6734,-2.6745,-2.6755,-2.6623,-2.6623,-2.6622,0,0,-2.6374,-2.6391,-2.6438,-2.6457,-2.6484,-2.649,-2.6501,-2.6525,-2.6532,-2.6584,-2.657,-2.6602,-2.6661,-2.6679,-2.6696,-2.6778,-2.6765,-2.6788,-2.6831,-2.6865,-2.6875,-2.6883,-2.6912,-2.6923,-2.6795,-2.6795,-2.6795,0,-2.6408,-2.6465,-2.6464,-2.6506,-2.6527,-2.6511,-2.6558,-2.6576,-2.6612,-2.6626,-2.6608,-2.6681,-2.6697,-2.6761,-2.6781,-2.6795,-2.6808,-2.6786,-2.6874,-2.6882,-2.689,-2.6918,-2.6929,-2.6798,-2.6797,-2.6797,-2.6797,0,-2.6505,-2.6545,-2.6579,-2.6616,-2.664,-2.6685,-2.669,-2.6714,-2.671,-2.6717,-2.677,-2.6788,-2.6824,-2.6839,-2.6835,-2.6903,-2.6892,-2.6874,-2.6841,-2.6904,-2.693,-2.694,-2.6802,-2.6801,-2.68,-2.6799,0,0,-2.6602,-2.6637,-2.665,-2.6666,-2.6695,-2.6725,-2.6769,-2.6804,-2.6825,-2.6851,-2.6887,-2.6937,-2.6921,-2.694,-2.6938,-2.6968,-2.7031,-2.6946,-2.6946,-2.6961,-2.7108,-2.7121,-2.7134,-2.7023,-2.7025,-2.7027,-2.7105,0,-2.6678,-2.6756,-2.6756,-2.6828,-2.6864,-2.6849,-2.6887,-2.6909,-2.6917,-2.6948,-2.6956,-2.6992,-2.6967,-2.6979,-2.7008,-2.7018,-2.7061,-2.7012,-2.7057,-2.7058,-2.7051,-2.7147,-2.7162,-2.7236,-2.7116,-2.7117,-2.7119,0,-2.6779,-2.6808,-2.6883,-2.6907,-2.6922,-2.6957,-2.6989,-2.702,-2.7043,-2.7047,-2.7069,-2.7062,-2.7106,-2.7071,-2.7132,-2.7098,-2.7116,-2.7124,-2.7127,-2.7131,-2.7092,-2.7155,-2.7259,-2.727,-2.7135,-2.7133,-2.7132,0,-2.6842,-2.69,-2.6953,-2.6967,-2.6996,-2.702,-2.7033,-2.7055,-2.7077,-2.7105,-2.7119,-2.7151,-2.7169,-2.7194,-2.7196,-2.7171,-2.7257,-2.7223,-2.7261,-2.7261,-2.728,-2.7279,-2.7389,-2.7291,-2.7291,-2.7291,-2.729,0,-2.6928,-2.6974,-2.6981,-2.7014,-2.7065,-2.7065,-2.7116,-2.7126,-2.7146,-2.718,-2.7169,-2.72,-2.7201,-2.7233,-2.7234,-2.7284,-2.7292,-2.7296,-2.7296,-2.7297,-2.7297,-2.7309,-2.7304,-2.7294,-2.7293,-2.7292,-2.7292,0,-2.7007,-2.7014,-2.707,-2.7093,-2.71,-2.7137,-2.7156,-2.7187,-2.7193,-2.7236,-2.7246,-2.7256,-2.7294,-2.7298,-2.7341,-2.7342,-2.7402,-2.7396,-2.7395,-2.7394,-2.7432,-2.7428,-2.7554,-2.7571,-2.7462,-2.7463,-2.7464,0,-2.7062,-2.7097,-2.7124,-2.7147,-2.7161,-2.7197,-2.7219,-2.7219,-2.7243,-2.7273,-2.7299,-2.7336,-2.7365,-2.7425,-2.7436,-2.7469,-2.7464,-2.7506,-2.7469,-2.7469,-2.7465,-2.7463,-2.7467,-2.7513,-2.7515,-2.7516,-2.7516,0,-2.7158,-2.716,-2.7192,-2.7226,-2.7253,-2.7279,-2.7304,-2.7322,-2.7326,-2.7352,-2.7391,-2.7414,-2.7458,-2.7494,-2.7527,-2.7539,-2.7529,-2.7528,-2.7539,-2.754,-2.7538,-2.754,-2.7414,-2.7525,-2.7524,-2.7524,-2.7523,-2.7523,-2.7227,-2.7258,-2.7282,-2.7319,-2.7337,-2.7361,-2.7391,-2.7401,-2.7434,-2.7471,-2.7469,-2.7511,-2.7534,-2.7576,-2.7591,-2.7624,-2.761,-2.7625,-2.7629,-2.7633,-2.7637,-2.7533,-2.763,-2.763,-2.7629,-2.7629,-2.7629,0,-2.7323,-2.7338,-2.7371,-2.7407,-2.7435,-2.7423,-2.745,-2.7474,-2.7512,-2.7535,-2.7564,-2.7608,-2.7643,-2.7657,-2.7691,-2.7714,-2.771,-2.7723,-2.7722,-2.7725,-2.7648,-2.7635,-2.7726,-2.7726,-2.7726,-2.7726,-2.7726,-2.7726,-2.7376,-2.7428,-2.7433,-2.7494,-2.7508,-2.755,-2.7566,-2.7588,-2.7606,-2.7656,-2.7685,-2.7694,-2.7713,-2.7748,-2.778,-2.7783,-2.7796,-2.7811,-2.7812,-2.774,-2.773,-2.7721,-2.7709,-2.7814,-2.7814,-2.7886,-2.7887,-2.7888]}]]